Time,TemperatureF,DewpointF,PressureIn,WindDirection,WindDirectionDegrees,WindSpeedMPH,WindSpeedGustMPH,Humidity,HourlyPrecipIn,Conditions,Clouds,dailyrainin,SoftwareType,DateUTC
2013-03-21 00:00:00,24.9,21.3,29.82,WNW,297,0.0,0.0,86,0.00,,---,0.36,VWS V14.01,2013-03-21 04:00:00,
2013-03-21 00:05:00,25.2,21.6,29.82,WNW,297,0.0,0.0,86,0.00,,---,0.00,VWS V14.01,2013-03-21 04:05:00,
2013-03-21 00:10:00,25.2,21.3,29.82,WNW,297,0.0,0.0,85,0.00,,---,0.00,VWS V14.01,2013-03-21 04:10:00,
2013-03-21 00:15:00,25.2,21.0,29.82,WNW,297,0.0,0.0,84,0.00,,---,0.00,VWS V14.01,2013-03-21 04:15:00,
2013-03-21 00:20:00,25.1,21.2,29.82,WNW,297,0.0,0.0,85,0.00,,---,0.00,VWS V14.01,2013-03-21 04:20:00,
2013-03-21 00:25:00,24.9,21.0,29.82,WNW,297,0.0,0.0,85,0.00,,---,0.00,VWS V14.01,2013-03-21 04:25:00,
2013-03-21 00:30:00,24.8,20.9,29.82,WNW,297,0.0,0.0,85,0.00,,---,0.00,VWS V14.01,2013-03-21 04:30:00,
2013-03-21 00:35:00,24.6,20.5,29.82,WNW,297,0.0,0.0,84,0.00,,---,0.00,VWS V14.01,2013-03-21 04:35:00,
2013-03-21 00:40:00,24.4,20.5,29.82,WNW,297,0.0,0.0,85,0.00,,---,0.00,VWS V14.01,2013-03-21 04:40:00,
2013-03-21 00:45:00,24.2,20.4,29.82,WNW,297,0.0,0.0,85,0.00,,---,0.00,VWS V14.01,2013-03-21 04:45:00,
2013-03-21 00:50:00,24.0,20.1,29.82,WNW,297,0.0,0.0,85,0.00,,---,0.00,VWS V14.01,2013-03-21 04:50:00,
2013-03-21 00:55:00,23.8,20.0,29.82,WNW,297,0.0,0.0,85,0.00,,---,0.00,VWS V14.01,2013-03-21 04:55:00,
2013-03-21 01:00:00,23.6,19.8,29.82,WNW,297,0.0,0.0,85,0.00,,---,0.00,VWS V14.01,2013-03-21 05:00:00,
2013-03-21 01:05:00,23.3,19.2,29.82,WNW,297,0.0,0.0,84,0.00,,---,0.00,VWS V14.01,2013-03-21 05:05:00,
2013-03-21 01:10:00,23.1,19.3,29.82,WNW,297,0.0,0.0,85,0.00,,---,0.00,VWS V14.01,2013-03-21 05:10:00,
2013-03-21 01:15:00,22.8,19.0,29.82,WNW,297,0.0,0.0,85,0.00,,---,0.00,VWS V14.01,2013-03-21 05:15:00,
2013-03-21 01:20:00,22.5,18.7,29.83,WNW,297,0.0,0.0,85,0.00,,---,0.00,VWS V14.01,2013-03-21 05:20:00,
2013-03-21 01:25:00,22.3,18.8,29.83,WNW,297,0.0,0.0,86,0.00,,---,0.00,VWS V14.01,2013-03-21 05:25:00,
2013-03-21 01:30:00,22.1,18.6,29.83,WNW,297,0.0,0.0,86,0.00,,---,0.00,VWS V14.01,2013-03-21 05:30:00,
2013-03-21 01:35:00,22.1,18.8,29.83,WNW,297,0.0,0.0,87,0.00,,---,0.00,VWS V14.01,2013-03-21 05:35:00,
2013-03-21 01:40:00,22.0,18.7,29.83,WNW,297,0.0,0.0,87,0.00,,---,0.00,VWS V14.01,2013-03-21 05:40:00,
2013-03-21 01:45:00,21.8,18.5,29.83,WNW,297,0.0,0.0,87,0.00,,---,0.00,VWS V14.01,2013-03-21 05:45:00,
2013-03-21 01:50:00,21.8,18.5,29.83,WNW,297,0.0,0.0,87,0.00,,---,0.00,VWS V14.01,2013-03-21 05:50:00,
2013-03-21 01:55:00,21.7,18.4,29.83,WNW,297,0.0,0.0,87,0.00,,---,0.00,VWS V14.01,2013-03-21 05:55:00,
2013-03-21 02:00:00,21.8,18.5,29.83,WNW,297,0.0,0.0,87,0.00,,---,0.00,VWS V14.01,2013-03-21 06:00:00,
2013-03-21 02:05:00,21.7,18.7,29.83,WNW,297,0.0,0.0,88,0.00,,---,0.00,VWS V14.01,2013-03-21 06:05:00,
2013-03-21 02:10:00,21.7,18.4,29.83,WNW,297,0.0,0.0,87,0.00,,---,0.00,VWS V14.01,2013-03-21 06:10:00,
2013-03-21 02:15:00,21.5,18.2,29.83,WNW,297,0.0,0.0,87,0.00,,---,0.00,VWS V14.01,2013-03-21 06:15:00,
2013-03-21 02:20:00,21.4,18.4,29.83,WNW,297,0.0,0.0,88,0.00,,---,0.00,VWS V14.01,2013-03-21 06:20:00,
2013-03-21 02:25:00,21.3,18.3,29.83,WNW,297,0.0,0.0,88,0.00,,---,0.00,VWS V14.01,2013-03-21 06:25:00,
2013-03-21 02:30:00,21.2,18.2,29.82,WNW,297,0.0,0.0,88,0.00,,---,0.00,VWS V14.01,2013-03-21 06:30:00,
2013-03-21 02:35:00,21.1,18.1,29.82,WNW,297,0.0,0.0,88,0.00,,---,0.00,VWS V14.01,2013-03-21 06:35:00,
2013-03-21 02:40:00,20.9,17.9,29.82,WNW,297,0.0,0.0,88,0.00,,---,0.00,VWS V14.01,2013-03-21 06:40:00,
2013-03-21 02:45:00,20.7,17.7,29.82,WNW,297,0.0,0.0,88,0.00,,---,0.00,VWS V14.01,2013-03-21 06:45:00,
2013-03-21 02:50:00,20.7,18.0,29.82,WNW,297,0.0,0.0,89,0.00,,---,0.00,VWS V14.01,2013-03-21 06:50:00,
2013-03-21 02:55:00,20.7,18.0,29.82,WNW,297,0.0,0.0,89,0.00,,---,0.00,VWS V14.01,2013-03-21 06:55:00,
2013-03-21 03:00:00,20.7,18.0,29.82,WNW,297,0.0,0.0,89,0.00,,---,0.00,VWS V14.01,2013-03-21 07:00:00,
2013-03-21 03:05:00,20.6,17.9,29.82,WNW,297,0.0,0.0,89,0.00,,---,0.00,VWS V14.01,2013-03-21 07:05:00,
2013-03-21 03:10:00,20.5,17.8,29.82,WNW,297,0.0,0.0,89,0.00,,---,0.00,VWS V14.01,2013-03-21 07:10:00,
2013-03-21 03:15:00,20.4,17.7,29.82,WNW,297,0.0,0.0,89,0.00,,---,0.00,VWS V14.01,2013-03-21 07:15:00,
2013-03-21 03:20:00,20.3,17.6,29.82,WNW,297,0.0,0.0,89,0.00,,---,0.00,VWS V14.01,2013-03-21 07:20:00,
2013-03-21 03:25:00,20.3,17.8,29.82,WNW,297,0.0,0.0,90,0.00,,---,0.00,VWS V14.01,2013-03-21 07:25:00,
2013-03-21 03:30:00,20.2,17.5,29.82,WNW,297,0.0,0.0,89,0.00,,---,0.00,VWS V14.01,2013-03-21 07:30:00,
2013-03-21 03:35:00,20.2,17.7,29.81,WNW,297,0.0,0.0,90,0.00,,---,0.00,VWS V14.01,2013-03-21 07:35:00,
2013-03-21 03:40:00,20.2,17.7,29.81,WNW,297,0.0,0.0,90,0.00,,---,0.00,VWS V14.01,2013-03-21 07:40:00,
2013-03-21 03:45:00,20.2,17.7,29.81,WNW,297,0.0,0.0,90,0.00,,---,0.00,VWS V14.01,2013-03-21 07:45:00,
2013-03-21 03:50:00,20.3,17.8,29.81,WNW,297,0.0,0.0,90,0.00,,---,0.00,VWS V14.01,2013-03-21 07:50:00,
2013-03-21 03:55:00,20.2,17.7,29.81,WNW,297,0.0,0.0,90,0.00,,---,0.00,VWS V14.01,2013-03-21 07:55:00,
2013-03-21 04:00:00,20.2,17.7,29.80,WNW,297,0.0,0.0,90,0.00,,---,0.00,VWS V14.01,2013-03-21 08:00:00,
2013-03-21 04:05:00,20.3,17.8,29.80,WNW,297,0.0,0.0,90,0.00,,---,0.00,VWS V14.01,2013-03-21 08:05:00,
2013-03-21 04:10:00,20.3,17.8,29.81,WNW,297,0.0,0.0,90,0.00,,---,0.00,VWS V14.01,2013-03-21 08:10:00,
2013-03-21 04:15:00,20.4,17.9,29.81,WNW,297,0.0,0.0,90,0.00,,---,0.00,VWS V14.01,2013-03-21 08:15:00,
2013-03-21 04:20:00,20.7,18.2,29.80,WNW,297,0.0,0.0,90,0.00,,---,0.00,VWS V14.01,2013-03-21 08:20:00,
2013-03-21 04:25:00,20.8,18.3,29.80,WNW,297,0.0,1.0,90,0.00,,---,0.00,VWS V14.01,2013-03-21 08:25:00,
2013-03-21 04:30:00,20.9,18.2,29.80,WNW,297,0.0,0.0,89,0.00,,---,0.00,VWS V14.01,2013-03-21 08:30:00,
2013-03-21 04:35:00,21.0,18.3,29.80,WNW,297,0.0,0.0,89,0.00,,---,0.00,VWS V14.01,2013-03-21 08:35:00,
2013-03-21 04:40:00,21.0,18.3,29.80,WNW,297,0.0,0.0,89,0.00,,---,0.00,VWS V14.01,2013-03-21 08:40:00,
2013-03-21 04:45:00,21.0,18.0,29.80,WNW,297,0.0,0.0,88,0.00,,---,0.00,VWS V14.01,2013-03-21 08:45:00,
2013-03-21 04:50:00,21.2,18.2,29.80,WNW,297,0.0,0.0,88,0.00,,---,0.00,VWS V14.01,2013-03-21 08:50:00,
2013-03-21 04:55:00,21.2,18.2,29.80,WNW,297,0.0,0.0,88,0.00,,---,0.00,VWS V14.01,2013-03-21 08:55:00,
2013-03-21 05:00:00,21.3,18.3,29.80,WNW,297,0.0,0.0,88,0.00,,---,0.00,VWS V14.01,2013-03-21 09:00:00,
2013-03-21 05:05:00,21.3,18.3,29.80,WNW,297,0.0,0.0,88,0.00,,---,0.00,VWS V14.01,2013-03-21 09:05:00,
2013-03-21 05:10:00,21.5,18.5,29.79,WNW,297,0.0,0.0,88,0.00,,---,0.00,VWS V14.01,2013-03-21 09:10:00,
2013-03-21 05:15:00,21.6,18.6,29.79,WNW,297,0.0,0.0,88,0.00,,---,0.00,VWS V14.01,2013-03-21 09:15:00,
2013-03-21 05:20:00,21.7,18.4,29.79,WNW,297,0.0,0.0,87,0.00,,---,0.00,VWS V14.01,2013-03-21 09:20:00,
2013-03-21 05:25:00,21.5,18.2,29.79,WNW,297,0.0,0.0,87,0.00,,---,0.00,VWS V14.01,2013-03-21 09:25:00,
2013-03-21 05:30:00,21.4,18.4,29.80,WNW,297,0.0,0.0,88,0.00,,---,0.00,VWS V14.01,2013-03-21 09:30:00,
2013-03-21 05:35:00,21.4,18.4,29.79,WNW,297,0.0,0.0,88,0.00,,---,0.00,VWS V14.01,2013-03-21 09:35:00,
2013-03-21 05:40:00,21.4,18.4,29.79,WNW,297,0.0,0.0,88,0.00,,---,0.00,VWS V14.01,2013-03-21 09:40:00,
2013-03-21 05:45:00,21.3,18.3,29.79,WNW,297,0.0,0.0,88,0.00,,---,0.00,VWS V14.01,2013-03-21 09:45:00,
2013-03-21 05:50:00,21.1,17.8,29.79,WNW,297,0.0,0.0,87,0.00,,---,0.00,VWS V14.01,2013-03-21 09:50:00,
2013-03-21 05:55:00,21.1,18.1,29.79,WNW,297,0.0,0.0,88,0.00,,---,0.00,VWS V14.01,2013-03-21 09:55:00,
2013-03-21 06:00:00,20.9,17.9,29.79,WNW,297,0.0,0.0,88,0.00,,---,0.00,VWS V14.01,2013-03-21 10:00:00,
2013-03-21 06:05:00,20.8,17.8,29.79,WNW,297,0.0,0.0,88,0.00,,---,0.00,VWS V14.01,2013-03-21 10:05:00,
2013-03-21 06:10:00,20.7,17.7,29.80,WNW,297,0.0,0.0,88,0.00,,---,0.00,VWS V14.01,2013-03-21 10:10:00,
2013-03-21 06:15:00,20.7,17.7,29.80,WNW,297,0.0,0.0,88,0.00,,---,0.00,VWS V14.01,2013-03-21 10:15:00,
2013-03-21 06:20:00,20.7,18.0,29.80,WNW,297,0.0,0.0,89,0.00,,---,0.00,VWS V14.01,2013-03-21 10:20:00,
2013-03-21 06:25:00,20.6,17.6,29.80,WNW,297,0.0,0.0,88,0.00,,---,0.00,VWS V14.01,2013-03-21 10:25:00,
2013-03-21 06:30:00,20.5,17.5,29.80,WNW,297,0.0,0.0,88,0.00,,---,0.00,VWS V14.01,2013-03-21 10:30:00,
2013-03-21 06:35:00,20.5,17.8,29.80,WNW,297,0.0,0.0,89,0.00,,---,0.00,VWS V14.01,2013-03-21 10:35:00,
2013-03-21 06:40:00,20.6,17.9,29.80,WNW,297,0.0,0.0,89,0.00,,---,0.00,VWS V14.01,2013-03-21 10:40:00,
2013-03-21 06:45:00,20.7,18.0,29.80,WNW,297,0.0,0.0,89,0.00,,---,0.00,VWS V14.01,2013-03-21 10:45:00,
2013-03-21 06:50:00,20.8,18.3,29.80,WNW,297,0.0,0.0,90,0.00,,---,0.00,VWS V14.01,2013-03-21 10:50:00,
2013-03-21 06:55:00,21.3,18.8,29.80,WNW,297,0.0,0.0,90,0.00,,---,0.00,VWS V14.01,2013-03-21 10:55:00,
2013-03-21 07:00:00,21.7,19.2,29.80,WNW,297,0.0,0.0,90,0.00,,---,0.00,VWS V14.01,2013-03-21 11:00:00,
2013-03-21 07:05:00,21.7,19.0,29.80,WNW,297,0.0,0.0,89,0.00,,---,0.00,VWS V14.01,2013-03-21 11:05:00,
2013-03-21 07:10:00,21.8,19.1,29.80,WNW,297,0.0,0.0,89,0.00,,---,0.00,VWS V14.01,2013-03-21 11:10:00,
2013-03-21 07:15:00,21.9,19.2,29.80,WNW,297,0.0,0.0,89,0.00,,---,0.00,VWS V14.01,2013-03-21 11:15:00,
2013-03-21 07:20:00,22.1,19.4,29.80,WNW,297,0.0,0.0,89,0.00,,---,0.00,VWS V14.01,2013-03-21 11:20:00,
2013-03-21 07:25:00,22.4,19.9,29.80,WNW,297,0.0,0.0,90,0.00,,---,0.00,VWS V14.01,2013-03-21 11:25:00,
2013-03-21 07:30:00,22.7,20.0,29.80,WNW,297,0.0,0.0,89,0.00,,---,0.00,VWS V14.01,2013-03-21 11:30:00,
2013-03-21 07:35:00,23.0,20.2,29.80,WNW,297,0.0,0.0,89,0.00,,---,0.00,VWS V14.01,2013-03-21 11:35:00,
2013-03-21 07:40:00,23.3,20.3,29.80,WNW,297,0.0,0.0,88,0.00,,---,0.00,VWS V14.01,2013-03-21 11:40:00,
2013-03-21 07:45:00,23.9,20.6,29.80,WNW,297,0.0,2.0,87,0.00,,---,0.00,VWS V14.01,2013-03-21 11:45:00,
2013-03-21 07:50:00,24.6,20.7,29.80,WNW,297,0.0,2.0,85,0.00,,---,0.00,VWS V14.01,2013-03-21 11:50:00,
2013-03-21 07:55:00,25.4,21.0,29.80,WNW,297,0.0,1.0,83,0.00,,---,0.00,VWS V14.01,2013-03-21 11:55:00,
2013-03-21 08:00:00,26.1,20.8,29.80,WNW,297,0.0,1.0,80,0.00,,---,0.00,VWS V14.01,2013-03-21 12:00:00,
2013-03-21 08:05:00,26.6,21.0,29.79,NNE,30,2.0,3.0,79,0.00,,---,0.00,VWS V14.01,2013-03-21 12:05:00,
2013-03-21 08:10:00,27.0,20.8,29.79,NNE,30,0.0,2.0,77,0.00,,---,0.00,VWS V14.01,2013-03-21 12:10:00,
2013-03-21 08:15:00,27.3,21.1,29.80,WSW,244,0.0,3.0,77,0.00,,---,0.00,VWS V14.01,2013-03-21 12:15:00,
2013-03-21 08:20:00,27.5,20.9,29.79,WSW,244,0.0,0.0,76,0.00,,---,0.00,VWS V14.01,2013-03-21 12:20:00,
2013-03-21 08:25:00,27.7,20.8,29.79,WSW,244,0.0,1.0,75,0.00,,---,0.00,VWS V14.01,2013-03-21 12:25:00,
2013-03-21 08:30:00,28.0,20.8,29.79,WSW,244,1.0,1.0,74,0.00,,---,0.00,VWS V14.01,2013-03-21 12:30:00,
2013-03-21 08:35:00,28.2,20.7,29.79,WSW,244,0.0,2.0,73,0.00,,---,0.00,VWS V14.01,2013-03-21 12:35:00,
2013-03-21 08:40:00,28.5,20.6,29.79,WSW,244,0.0,1.0,72,0.00,,---,0.00,VWS V14.01,2013-03-21 12:40:00,
2013-03-21 08:45:00,28.7,20.8,29.79,WSW,244,0.0,0.0,72,0.00,,---,0.00,VWS V14.01,2013-03-21 12:45:00,
2013-03-21 08:50:00,29.0,20.5,29.79,WSW,244,1.0,3.0,70,0.00,,---,0.00,VWS V14.01,2013-03-21 12:50:00,
2013-03-21 08:55:00,29.2,20.3,29.79,NNW,344,2.0,3.0,69,0.00,,---,0.00,VWS V14.01,2013-03-21 12:55:00,
2013-03-21 09:00:00,29.1,19.9,29.79,NW,308,1.0,4.0,68,0.00,,---,0.00,VWS V14.01,2013-03-21 13:00:00,
2013-03-21 09:05:00,29.3,20.4,29.79,NE,35,2.0,3.0,69,0.00,,---,0.00,VWS V14.01,2013-03-21 13:05:00,
2013-03-21 09:10:00,29.5,20.3,29.79,NE,35,0.0,2.0,68,0.00,,---,0.00,VWS V14.01,2013-03-21 13:10:00,
2013-03-21 09:15:00,29.9,20.3,29.78,NE,35,0.0,1.0,67,0.00,,---,0.00,VWS V14.01,2013-03-21 13:15:00,
2013-03-21 09:20:00,30.3,19.6,29.79,NNW,341,1.0,3.0,64,0.00,,---,0.00,VWS V14.01,2013-03-21 13:20:00,
2013-03-21 09:25:00,30.4,19.3,29.78,North,8,1.0,5.0,63,0.00,,---,0.00,VWS V14.01,2013-03-21 13:25:00,
2013-03-21 09:30:00,30.8,20.1,29.78,NW,321,2.0,3.0,64,0.00,,---,0.00,VWS V14.01,2013-03-21 13:30:00,
2013-03-21 09:35:00,30.8,19.3,29.78,WNW,302,3.0,6.0,62,0.00,,---,0.00,VWS V14.01,2013-03-21 13:35:00,
2013-03-21 09:40:00,30.8,20.1,29.78,North,4,2.0,9.0,64,0.00,,---,0.00,VWS V14.01,2013-03-21 13:40:00,
2013-03-21 09:45:00,30.9,19.4,29.77,WNW,299,1.0,7.0,62,0.00,,---,0.00,VWS V14.01,2013-03-21 13:45:00,
2013-03-21 09:50:00,31.1,19.6,29.77,NE,35,1.0,4.0,62,0.00,,---,0.00,VWS V14.01,2013-03-21 13:50:00,
2013-03-21 09:55:00,31.2,19.7,29.78,WNW,299,5.0,5.0,62,0.00,,---,0.00,VWS V14.01,2013-03-21 13:55:00,
2013-03-21 10:00:00,31.0,19.1,29.78,NW,318,1.0,5.0,61,0.00,,---,0.00,VWS V14.01,2013-03-21 14:00:00,
2013-03-21 10:05:00,30.9,19.4,29.78,NW,318,1.0,2.0,62,0.00,,---,0.00,VWS V14.01,2013-03-21 14:05:00,
2013-03-21 10:10:00,31.0,18.8,29.78,NNE,15,0.0,4.0,60,0.00,,---,0.00,VWS V14.01,2013-03-21 14:10:00,
2013-03-21 10:15:00,31.1,20.0,29.78,NNE,15,1.0,2.0,63,0.00,,---,0.00,VWS V14.01,2013-03-21 14:15:00,
2013-03-21 10:20:00,31.3,19.4,29.78,NNE,15,1.0,2.0,61,0.00,,---,0.00,VWS V14.01,2013-03-21 14:20:00,
2013-03-21 10:25:00,31.5,18.8,29.77,NW,314,0.0,3.0,59,0.00,,---,0.00,VWS V14.01,2013-03-21 14:25:00,
2013-03-21 10:30:00,32.1,19.8,29.77,NW,314,0.0,1.0,60,0.00,,---,0.00,VWS V14.01,2013-03-21 14:30:00,
2013-03-21 10:35:00,32.6,19.1,29.76,North,8,0.0,3.0,57,0.00,,---,0.00,VWS V14.01,2013-03-21 14:35:00,
2013-03-21 10:40:00,33.1,19.1,29.76,North,8,2.0,2.0,56,0.00,,---,0.00,VWS V14.01,2013-03-21 14:40:00,
2013-03-21 10:45:00,33.1,18.7,29.76,North,8,0.0,3.0,55,0.00,,---,0.00,VWS V14.01,2013-03-21 14:45:00,
2013-03-21 10:50:00,33.3,18.0,29.76,NNW,336,2.0,4.0,53,0.00,,---,0.00,VWS V14.01,2013-03-21 14:50:00,
2013-03-21 10:55:00,32.9,17.2,29.76,NNW,333,1.0,3.0,52,0.00,,---,0.00,VWS V14.01,2013-03-21 14:55:00,
2013-03-21 11:00:00,32.9,17.2,29.76,NNE,30,0.0,4.0,52,0.00,,---,0.00,VWS V14.01,2013-03-21 15:00:00,
2013-03-21 11:05:00,32.9,16.8,29.76,NW,315,0.0,2.0,51,0.00,,---,0.00,VWS V14.01,2013-03-21 15:05:00,
2013-03-21 11:10:00,33.2,17.9,29.76,North,6,1.0,2.0,53,0.00,,---,0.00,VWS V14.01,2013-03-21 15:10:00,
2013-03-21 11:15:00,33.7,17.0,29.76,NNE,17,0.0,3.0,50,0.00,,---,0.00,VWS V14.01,2013-03-21 15:15:00,
2013-03-21 11:20:00,33.7,17.0,29.76,NE,40,0.0,4.0,50,0.00,,---,0.00,VWS V14.01,2013-03-21 15:20:00,
2013-03-21 11:25:00,33.6,17.0,29.76,NE,40,0.0,1.0,50,0.00,,---,0.00,VWS V14.01,2013-03-21 15:25:00,
2013-03-21 11:30:00,33.1,16.0,29.76,NNW,344,0.0,4.0,49,0.00,,---,0.00,VWS V14.01,2013-03-21 15:30:00,
2013-03-21 11:35:00,33.0,16.4,29.76,NNW,344,0.0,1.0,50,0.00,,---,0.00,VWS V14.01,2013-03-21 15:35:00,
2013-03-21 11:40:00,33.2,16.6,29.76,WSW,247,0.0,3.0,50,0.00,,---,0.00,VWS V14.01,2013-03-21 15:40:00,
2013-03-21 11:45:00,33.1,14.6,29.76,WSW,242,0.0,3.0,46,0.00,,---,0.00,VWS V14.01,2013-03-21 15:45:00,
2013-03-21 11:50:00,33.1,17.0,29.75,SSW,200,5.0,6.0,51,0.00,,---,0.00,VWS V14.01,2013-03-21 15:50:00,
2013-03-21 11:55:00,32.6,19.5,29.75,South,188,1.0,6.0,58,0.00,,---,0.00,VWS V14.01,2013-03-21 15:55:00,
2013-03-21 12:00:00,32.5,18.6,29.75,South,188,0.0,2.0,56,0.00,,---,0.00,VWS V14.01,2013-03-21 16:00:00,
2013-03-21 12:05:00,33.2,20.0,29.75,South,173,0.0,2.0,58,0.01,,---,0.01,VWS V14.01,2013-03-21 16:05:00,
2013-03-21 12:10:00,33.6,20.0,29.74,SSW,204,1.0,6.0,57,0.01,,---,0.01,VWS V14.01,2013-03-21 16:10:00,
2013-03-21 12:15:00,33.3,19.3,29.74,WSW,240,2.0,5.0,56,0.01,,---,0.01,VWS V14.01,2013-03-21 16:15:00,
2013-03-21 12:20:00,33.5,19.5,29.74,SSE,148,0.0,2.0,56,0.01,,---,0.01,VWS V14.01,2013-03-21 16:20:00,
2013-03-21 12:25:00,34.0,20.8,29.74,SSW,196,4.0,4.0,58,0.01,,---,0.01,VWS V14.01,2013-03-21 16:25:00,
2013-03-21 12:30:00,33.5,19.9,29.74,SW,223,1.0,4.0,57,0.01,,---,0.01,VWS V14.01,2013-03-21 16:30:00,
2013-03-21 12:35:00,33.5,20.7,29.73,SW,233,2.0,5.0,59,0.01,,---,0.01,VWS V14.01,2013-03-21 16:35:00,
2013-03-21 12:40:00,33.9,20.3,29.73,SW,233,0.0,3.0,57,0.01,,---,0.01,VWS V14.01,2013-03-21 16:40:00,
2013-03-21 12:45:00,34.2,21.4,29.73,SSW,196,1.0,2.0,59,0.01,,---,0.01,VWS V14.01,2013-03-21 16:45:00,
2013-03-21 12:50:00,34.4,20.8,29.72,SSE,152,2.0,4.0,57,0.01,,---,0.01,VWS V14.01,2013-03-21 16:50:00,
2013-03-21 12:55:00,34.4,20.3,29.72,SSE,152,0.0,2.0,56,0.01,,---,0.01,VWS V14.01,2013-03-21 16:55:00,
2013-03-21 13:00:00,34.5,20.4,29.72,NNE,17,0.0,3.0,56,0.02,,---,0.02,VWS V14.01,2013-03-21 17:00:00,
2013-03-21 13:05:00,34.8,20.3,29.72,NNE,17,0.0,1.0,55,0.02,,---,0.02,VWS V14.01,2013-03-21 17:05:00,
2013-03-21 13:10:00,34.8,20.3,29.71,NNE,12,0.0,4.0,55,0.01,,---,0.02,VWS V14.01,2013-03-21 17:10:00,
2013-03-21 13:15:00,35.0,19.6,29.71,North,352,0.0,3.0,53,0.01,,---,0.02,VWS V14.01,2013-03-21 17:15:00,
2013-03-21 13:20:00,35.5,20.5,29.71,North,352,1.0,1.0,54,0.02,,---,0.03,VWS V14.01,2013-03-21 17:20:00,
2013-03-21 13:25:00,35.5,19.6,29.70,NW,314,0.0,6.0,52,0.02,,---,0.03,VWS V14.01,2013-03-21 17:25:00,
2013-03-21 13:30:00,35.4,20.0,29.70,SSE,154,0.0,2.0,53,0.03,,---,0.04,VWS V14.01,2013-03-21 17:30:00,
2013-03-21 13:35:00,35.5,21.0,29.70,ENE,73,3.0,3.0,55,0.04,,---,0.05,VWS V14.01,2013-03-21 17:35:00,
2013-03-21 13:40:00,35.9,20.9,29.69,ENE,77,1.0,3.0,54,0.04,,---,0.05,VWS V14.01,2013-03-21 17:40:00,
2013-03-21 13:45:00,36.0,20.1,29.69,ENE,77,0.0,1.0,52,0.05,,---,0.06,VWS V14.01,2013-03-21 17:45:00,
2013-03-21 13:50:00,36.2,20.3,29.69,WNW,297,3.0,3.0,52,0.05,,---,0.06,VWS V14.01,2013-03-21 17:50:00,
2013-03-21 13:55:00,36.3,19.5,29.69,West,264,0.0,4.0,50,0.06,,---,0.07,VWS V14.01,2013-03-21 17:55:00,
2013-03-21 14:00:00,36.4,20.5,29.68,SSW,202,0.0,4.0,52,0.06,,---,0.07,VWS V14.01,2013-03-21 18:00:00,
2013-03-21 14:05:00,36.5,20.6,29.68,SE,140,2.0,3.0,52,0.06,,---,0.08,VWS V14.01,2013-03-21 18:05:00,
2013-03-21 14:10:00,36.7,20.3,29.68,SE,135,0.0,2.0,51,0.06,,---,0.08,VWS V14.01,2013-03-21 18:10:00,
2013-03-21 14:15:00,36.7,20.8,29.68,NNW,338,1.0,5.0,52,0.06,,---,0.08,VWS V14.01,2013-03-21 18:15:00,
2013-03-21 14:20:00,36.6,20.6,29.67,NNW,338,1.0,4.0,52,0.07,,---,0.09,VWS V14.01,2013-03-21 18:20:00,
2013-03-21 14:25:00,36.5,20.1,29.67,NNE,22,2.0,4.0,51,0.06,,---,0.09,VWS V14.01,2013-03-21 18:25:00,
2013-03-21 14:30:00,36.2,20.3,29.67,WNW,292,1.0,5.0,52,0.06,,---,0.09,VWS V14.01,2013-03-21 18:30:00,
2013-03-21 14:35:00,36.0,20.1,29.66,South,180,2.0,5.0,52,0.06,,---,0.10,VWS V14.01,2013-03-21 18:35:00,
2013-03-21 14:40:00,36.2,21.2,29.66,South,180,1.0,2.0,54,0.05,,---,0.10,VWS V14.01,2013-03-21 18:40:00,
2013-03-21 14:45:00,36.5,21.0,29.66,SSE,158,1.0,3.0,53,0.05,,---,0.10,VWS V14.01,2013-03-21 18:45:00,
2013-03-21 14:50:00,36.6,21.5,29.65,SSE,158,0.0,3.0,54,0.04,,---,0.10,VWS V14.01,2013-03-21 18:50:00,
2013-03-21 14:59:00,36.6,21.5,29.65,SSE,158,0.0,3.0,54,0.04,,---,0.10,VWS V14.01,2013-03-21 18:59:00,
2013-03-21 15:00:00,36.9,20.5,29.65,South,181,1.0,1.0,51,0.05,,---,0.11,VWS V14.01,2013-03-21 19:00:00,
2013-03-21 15:05:00,36.8,19.5,29.64,West,262,2.0,2.0,49,0.04,,---,0.11,VWS V14.01,2013-03-21 19:05:00,
2013-03-21 15:10:00,36.9,19.1,29.64,North,8,1.0,2.0,48,0.04,,---,0.12,VWS V14.01,2013-03-21 19:10:00,
2013-03-21 15:15:00,37.2,20.3,29.64,South,171,0.0,3.0,50,0.04,,---,0.12,VWS V14.01,2013-03-21 19:15:00,
2013-03-21 15:20:00,37.1,19.2,29.64,NW,311,2.0,4.0,48,0.04,,---,0.12,VWS V14.01,2013-03-21 19:20:00,
2013-03-21 15:25:00,37.0,19.1,29.64,NNE,30,2.0,5.0,48,0.03,,---,0.12,VWS V14.01,2013-03-21 19:25:00,
2013-03-21 15:30:00,36.9,20.5,29.63,NE,35,0.0,2.0,51,0.03,,---,0.12,VWS V14.01,2013-03-21 19:30:00,
2013-03-21 15:31:00,36.9,20.5,29.64,NE,35,0.0,2.0,51,0.03,,---,0.12,VWS V14.01,2013-03-21 19:31:00,
2013-03-21 15:35:00,37.0,20.1,29.63,WNW,292,0.0,3.0,50,0.03,,---,0.12,VWS V14.01,2013-03-21 19:35:00,
2013-03-21 15:40:00,36.9,20.0,29.63,NNE,15,2.0,6.0,50,0.03,,---,0.13,VWS V14.01,2013-03-21 19:40:00,
2013-03-21 15:45:00,36.4,20.9,29.63,North,358,1.0,5.0,53,0.03,,---,0.13,VWS V14.01,2013-03-21 19:45:00,
2013-03-21 15:50:00,36.3,21.7,29.63,ESE,102,2.0,4.0,55,0.03,,---,0.13,VWS V14.01,2013-03-21 19:50:00,
2013-03-21 15:55:00,36.2,22.0,29.63,East,79,0.0,2.0,56,0.03,,---,0.13,VWS V14.01,2013-03-21 19:55:00,
2013-03-21 16:00:00,36.1,21.5,29.63,ENE,71,1.0,2.0,55,0.02,,---,0.13,VWS V14.01,2013-03-21 20:00:00,
2013-03-21 16:05:00,35.9,22.2,29.63,East,88,0.0,3.0,57,0.02,,---,0.13,VWS V14.01,2013-03-21 20:05:00,
2013-03-21 16:10:00,35.7,22.0,29.63,North,350,0.0,3.0,57,0.02,,---,0.13,VWS V14.01,2013-03-21 20:10:00,
2013-03-21 16:15:00,35.4,22.5,29.63,North,3,2.0,3.0,59,0.01,,---,0.13,VWS V14.01,2013-03-21 20:15:00,
2013-03-21 16:20:00,34.9,23.2,29.63,North,0,1.0,4.0,62,0.03,,---,0.15,VWS V14.01,2013-03-21 20:20:00,
2013-03-21 16:25:00,34.3,24.1,29.63,North,0,1.0,4.0,66,0.03,,---,0.15,VWS V14.01,2013-03-21 20:25:00,
2013-03-21 16:30:00,33.8,24.4,29.63,North,0,0.0,3.0,68,0.03,,---,0.15,VWS V14.01,2013-03-21 20:30:00,
2013-03-21 16:35:00,33.6,24.9,29.63,North,0,0.0,3.0,70,0.03,,---,0.15,VWS V14.01,2013-03-21 20:35:00,
2013-03-21 16:40:00,33.3,24.9,29.63,NNE,22,1.0,3.0,71,0.03,,---,0.15,VWS V14.01,2013-03-21 20:40:00,
2013-03-21 16:45:00,32.8,25.8,29.64,NNE,22,1.0,2.0,75,0.02,,---,0.15,VWS V14.01,2013-03-21 20:45:00,
2013-03-21 16:50:00,32.5,25.8,29.64,NNE,22,0.0,1.0,76,0.02,,---,0.15,VWS V14.01,2013-03-21 20:50:00,
2013-03-21 16:55:00,32.3,26.2,29.64,NNE,22,0.0,0.0,78,0.02,,---,0.15,VWS V14.01,2013-03-21 20:55:00,
2013-03-21 17:00:00,32.1,26.6,29.64,NNE,22,0.0,2.0,80,0.02,,---,0.15,VWS V14.01,2013-03-21 21:00:00,
2013-03-21 17:05:00,31.9,27.0,29.64,NNE,22,0.0,0.0,82,0.02,,---,0.15,VWS V14.01,2013-03-21 21:05:00,
2013-03-21 17:10:00,31.6,27.0,29.63,NNE,22,0.0,0.0,83,0.02,,---,0.15,VWS V14.01,2013-03-21 21:10:00,
2013-03-21 17:15:00,31.7,27.4,29.63,NNE,22,0.0,1.0,84,0.02,,---,0.15,VWS V14.01,2013-03-21 21:15:00,
2013-03-21 17:20:00,31.6,27.3,29.64,NNE,22,1.0,4.0,84,0.02,,---,0.15,VWS V14.01,2013-03-21 21:20:00,
2013-03-21 17:25:00,31.5,26.9,29.64,NNE,22,0.0,1.0,83,0.00,,---,0.15,VWS V14.01,2013-03-21 21:25:00,
2013-03-21 17:30:00,31.4,26.8,29.64,NNE,22,0.0,2.0,83,0.00,,---,0.15,VWS V14.01,2013-03-21 21:30:00,
2013-03-21 17:35:00,31.3,26.8,29.64,NNE,22,0.0,2.0,83,0.00,,---,0.15,VWS V14.01,2013-03-21 21:35:00,
2013-03-21 17:40:00,31.2,26.6,29.64,NNE,22,0.0,1.0,83,0.00,,---,0.15,VWS V14.01,2013-03-21 21:40:00,
2013-03-21 17:45:00,31.1,26.8,29.64,NNE,22,0.0,2.0,84,0.00,,---,0.15,VWS V14.01,2013-03-21 21:45:00,
2013-03-21 17:50:00,31.0,27.0,29.64,NNE,22,0.0,2.0,85,0.00,,---,0.15,VWS V14.01,2013-03-21 21:50:00,
2013-03-21 17:55:00,31.0,27.0,29.64,NNE,22,0.0,1.0,85,0.00,,---,0.15,VWS V14.01,2013-03-21 21:55:00,
2013-03-21 18:00:00,30.9,27.2,29.64,NNE,22,0.0,1.0,86,0.00,,---,0.15,VWS V14.01,2013-03-21 22:00:00,
2013-03-21 18:05:00,30.7,27.0,29.64,NNE,22,0.0,1.0,86,0.00,,---,0.15,VWS V14.01,2013-03-21 22:05:00,
2013-03-21 18:10:00,30.6,27.2,29.64,NNE,22,0.0,2.0,87,0.00,,---,0.15,VWS V14.01,2013-03-21 22:10:00,
2013-03-21 18:15:00,30.6,27.5,29.64,NNE,22,0.0,1.0,88,0.01,,---,0.16,VWS V14.01,2013-03-21 22:15:00,
2013-03-21 18:20:00,30.6,27.5,29.64,NNE,22,0.0,0.0,88,0.01,,---,0.16,VWS V14.01,2013-03-21 22:20:00,
2013-03-21 18:25:00,30.6,27.8,29.64,NNE,22,0.0,1.0,89,0.01,,---,0.16,VWS V14.01,2013-03-21 22:25:00,
2013-03-21 18:30:00,30.6,27.2,29.64,NNE,22,0.0,0.0,87,0.01,,---,0.16,VWS V14.01,2013-03-21 22:30:00,
2013-03-21 18:35:00,30.5,27.1,29.64,NNE,22,0.0,1.0,87,0.01,,---,0.16,VWS V14.01,2013-03-21 22:35:00,
2013-03-21 18:40:00,30.5,27.4,29.64,NNE,22,0.0,1.0,88,0.01,,---,0.16,VWS V14.01,2013-03-21 22:40:00,
2013-03-21 18:45:00,30.4,27.3,29.64,NNE,22,0.0,1.0,88,0.01,,---,0.16,VWS V14.01,2013-03-21 22:45:00,
2013-03-21 18:50:00,30.4,27.3,29.64,NNE,22,0.0,1.0,88,0.01,,---,0.16,VWS V14.01,2013-03-21 22:50:00,
2013-03-21 18:55:00,30.3,27.2,29.64,NNE,25,0.0,0.0,88,0.00,,---,0.15,VWS V14.01,2013-03-21 22:55:00,
2013-03-21 19:00:00,30.4,27.3,29.64,North,0,0.0,0.0,88,0.00,,---,0.14,VWS V14.01,2013-03-21 23:00:00,
2013-03-21 19:05:00,30.3,27.5,29.64,North,0,0.0,0.0,89,0.00,,---,0.14,VWS V14.01,2013-03-21 23:05:00,
2013-03-21 19:10:00,30.3,27.5,29.64,North,0,0.0,0.0,89,0.00,,---,0.14,VWS V14.01,2013-03-21 23:10:00,
2013-03-21 19:15:00,30.3,27.5,29.64,North,0,0.0,0.0,89,0.00,,---,0.14,VWS V14.01,2013-03-21 23:15:00,
2013-03-21 19:20:00,30.3,27.5,29.63,NNE,22,0.0,1.0,89,0.00,,---,0.14,VWS V14.01,2013-03-21 23:20:00,
2013-03-21 19:25:00,30.3,27.7,29.64,NNE,22,0.0,1.0,90,0.00,,---,0.14,VWS V14.01,2013-03-21 23:25:00,
2013-03-21 19:30:00,30.3,27.7,29.63,NNE,22,0.0,1.0,90,0.00,,---,0.14,VWS V14.01,2013-03-21 23:30:00,
2013-03-21 19:35:00,30.3,27.7,29.63,NNE,22,0.0,1.0,90,0.00,,---,0.14,VWS V14.01,2013-03-21 23:35:00,
2013-03-21 19:40:00,30.3,27.7,29.64,NNE,22,0.0,0.0,90,0.00,,---,0.14,VWS V14.01,2013-03-21 23:40:00,
2013-03-21 19:45:00,30.3,27.7,29.64,NNE,22,0.0,1.0,90,0.00,,---,0.14,VWS V14.01,2013-03-21 23:45:00,
2013-03-21 19:50:00,30.3,27.7,29.63,NNE,22,0.0,1.0,90,0.00,,---,0.14,VWS V14.01,2013-03-21 23:50:00,
2013-03-21 19:55:00,30.4,27.8,29.63,NNE,22,0.0,1.0,90,0.00,,---,0.14,VWS V14.01,2013-03-21 23:55:00,
2013-03-21 20:00:00,30.5,27.9,29.64,NNE,22,0.0,2.0,90,0.00,,---,0.14,VWS V14.01,2013-03-22 00:00:00,
2013-03-21 20:05:00,30.5,27.9,29.64,SW,225,1.0,4.0,90,0.00,,---,0.14,VWS V14.01,2013-03-22 00:05:00,
2013-03-21 20:10:00,30.6,28.0,29.64,South,180,0.0,1.0,90,0.00,,---,0.14,VWS V14.01,2013-03-22 00:10:00,
2013-03-21 20:15:00,30.6,28.0,29.63,South,180,0.0,0.0,90,0.00,,---,0.14,VWS V14.01,2013-03-22 00:15:00,
2013-03-21 20:20:00,30.6,28.3,29.63,SSE,158,0.0,2.0,91,0.00,,---,0.14,VWS V14.01,2013-03-22 00:20:00,
2013-03-21 20:25:00,30.7,28.4,29.63,SSE,158,1.0,3.0,91,0.00,,---,0.14,VWS V14.01,2013-03-22 00:25:00,
2013-03-21 20:30:00,30.7,28.4,29.63,SSE,158,1.0,4.0,91,0.00,,---,0.14,VWS V14.01,2013-03-22 00:30:00,
2013-03-21 20:35:00,30.8,28.5,29.63,SSE,158,0.0,3.0,91,0.00,,---,0.14,VWS V14.01,2013-03-22 00:35:00,
2013-03-21 20:40:00,30.7,28.4,29.63,SSW,202,1.0,5.0,91,0.00,,---,0.14,VWS V14.01,2013-03-22 00:40:00,
2013-03-21 20:45:00,30.7,28.4,29.63,SSW,202,0.0,1.0,91,0.00,,---,0.14,VWS V14.01,2013-03-22 00:45:00,
2013-03-21 20:50:00,30.6,28.3,29.64,SSW,202,0.0,0.0,91,0.00,,---,0.14,VWS V14.01,2013-03-22 00:50:00,
2013-03-21 20:55:00,30.6,28.3,29.64,SSW,202,0.0,0.0,91,0.00,,---,0.14,VWS V14.01,2013-03-22 00:55:00,
2013-03-21 21:00:00,30.6,28.3,29.63,SSW,202,0.0,0.0,91,0.00,,---,0.14,VWS V14.01,2013-03-22 01:00:00,
2013-03-21 21:05:00,30.6,28.3,29.63,SSW,202,0.0,0.0,91,0.00,,---,0.14,VWS V14.01,2013-03-22 01:05:00,
2013-03-21 21:10:00,30.5,28.2,29.63,SSW,202,0.0,1.0,91,0.00,,---,0.14,VWS V14.01,2013-03-22 01:10:00,
2013-03-21 21:15:00,30.5,28.2,29.63,SSW,202,0.0,1.0,91,0.00,,---,0.14,VWS V14.01,2013-03-22 01:15:00,
2013-03-21 21:20:00,30.5,28.2,29.63,SSW,202,0.0,1.0,91,0.00,,---,0.14,VWS V14.01,2013-03-22 01:20:00,
2013-03-21 21:25:00,30.5,28.2,29.63,SSW,200,0.0,0.0,91,0.01,,---,0.15,VWS V14.01,2013-03-22 01:25:00,
2013-03-21 21:30:00,30.3,28.0,29.63,North,0,0.0,0.0,91,0.01,,---,0.15,VWS V14.01,2013-03-22 01:30:00,
2013-03-21 21:35:00,30.3,28.0,29.63,North,0,0.0,0.0,91,0.01,,---,0.15,VWS V14.01,2013-03-22 01:35:00,
2013-03-21 21:44:00,30.3,28.0,29.63,North,0,0.0,0.0,91,0.01,,---,0.15,VWS V14.01,2013-03-22 01:44:00,
2013-03-21 21:45:00,30.1,27.8,29.63,SSW,200,0.0,0.0,91,0.01,,---,0.15,VWS V14.01,2013-03-22 01:45:00,
2013-03-21 21:50:00,30.1,27.8,29.63,North,0,0.0,0.0,91,0.01,,---,0.15,VWS V14.01,2013-03-22 01:50:00,
2013-03-21 21:55:00,30.1,27.8,29.63,SSW,202,0.0,1.0,91,0.01,,---,0.15,VWS V14.01,2013-03-22 01:55:00,
2013-03-21 22:00:00,30.2,28.2,29.64,NW,315,0.0,2.0,92,0.01,,---,0.15,VWS V14.01,2013-03-22 02:00:00,
2013-03-21 22:05:00,30.3,28.3,29.64,NW,315,0.0,2.0,92,0.01,,---,0.15,VWS V14.01,2013-03-22 02:05:00,
2013-03-21 22:10:00,30.3,28.3,29.64,NW,315,0.0,1.0,92,0.01,,---,0.15,VWS V14.01,2013-03-22 02:10:00,
2013-03-21 22:15:00,30.4,28.4,29.64,NW,315,0.0,1.0,92,0.01,,---,0.15,VWS V14.01,2013-03-22 02:15:00,
2013-03-21 22:20:00,30.3,28.3,29.64,NW,315,0.0,0.0,92,0.01,,---,0.15,VWS V14.01,2013-03-22 02:20:00,
2013-03-21 22:25:00,30.3,28.3,29.64,NW,315,0.0,1.0,92,0.00,,---,0.15,VWS V14.01,2013-03-22 02:25:00,
2013-03-21 22:30:00,30.3,28.3,29.63,NW,315,0.0,1.0,92,0.00,,---,0.15,VWS V14.01,2013-03-22 02:30:00,
2013-03-21 22:35:00,30.3,28.0,29.63,NW,315,0.0,2.0,91,0.00,,---,0.15,VWS V14.01,2013-03-22 02:35:00,
2013-03-21 22:40:00,30.3,28.0,29.63,NW,315,0.0,2.0,91,0.00,,---,0.15,VWS V14.01,2013-03-22 02:40:00,
2013-03-21 22:45:00,30.2,27.9,29.63,WNW,292,0.0,1.0,91,0.00,,---,0.15,VWS V14.01,2013-03-22 02:45:00,
2013-03-21 22:50:00,30.2,27.9,29.63,WNW,292,0.0,2.0,91,0.00,,---,0.15,VWS V14.01,2013-03-22 02:50:00,
2013-03-21 22:55:00,30.1,27.8,29.63,North,0,0.0,3.0,91,0.00,,---,0.15,VWS V14.01,2013-03-22 02:55:00,
2013-03-21 23:00:00,30.1,27.8,29.63,North,0,0.0,1.0,91,0.00,,---,0.15,VWS V14.01,2013-03-22 03:00:00,
2013-03-21 23:05:00,30.1,27.8,29.63,North,0,0.0,1.0,91,0.00,,---,0.15,VWS V14.01,2013-03-22 03:05:00,
2013-03-21 23:11:00,30.1,27.8,29.63,North,0,0.0,1.0,91,0.00,,---,0.15,VWS V14.01,2013-03-22 03:11:00,
2013-03-21 23:15:00,29.9,27.6,29.63,North,352,0.0,1.0,91,0.00,,---,0.15,VWS V14.01,2013-03-22 03:15:00,
2013-03-21 23:20:00,29.8,27.5,29.64,North,352,0.0,1.0,91,0.00,,---,0.15,VWS V14.01,2013-03-22 03:20:00,
2013-03-21 23:25:00,29.7,27.4,29.63,North,352,0.0,1.0,91,0.00,,---,0.15,VWS V14.01,2013-03-22 03:25:00,
2013-03-21 23:30:00,29.5,27.2,29.63,North,352,0.0,0.0,91,0.00,,---,0.15,VWS V14.01,2013-03-22 03:30:00,
2013-03-21 23:35:00,29.4,26.8,29.63,North,352,1.0,1.0,90,0.00,,---,0.15,VWS V14.01,2013-03-22 03:35:00,
2013-03-21 23:40:00,29.3,27.0,29.62,North,352,0.0,1.0,91,0.00,,---,0.15,VWS V14.01,2013-03-22 03:40:00,
2013-03-21 23:45:00,29.2,26.6,29.62,North,352,0.0,0.0,90,0.00,,---,0.15,VWS V14.01,2013-03-22 03:45:00,
2013-03-21 23:50:00,29.0,26.7,29.62,North,352,0.0,1.0,91,0.00,,---,0.15,VWS V14.01,2013-03-22 03:50:00,
2013-03-21 23:55:00,28.8,26.2,29.62,North,352,0.0,0.0,90,0.00,,---,0.15,VWS V14.01,2013-03-22 03:55:00,